Regional Weather Roundup
Issued by NWS

Home | Current Version | Previous Version | Graphics & Text | Print | Product List | Glossary On
Versions: 1 2 3 4 5 6 7 8 9 10 11 12 13 14 15 16 17 18 19 20 21 22 23 24 25 26 27 28 29 30 31 32 33 34 35 36 37 38 39 40 41 42 43 44 45 46 47 48 49 50
000
ASUS43 KOAX 312010
RWRNE

WEATHER ROUNDUP FOR NEBRASKA
NATIONAL WEATHER SERVICE OMAHA NE
300 PM CDT TUE MAY 31 2016

NOTES: SATELLITE DATA IS BEING USED TO AUGMENT CLOUD COVER ABOVE
       12000 FEET.
       "FAIR" INDICATES FEW OR NO CLOUDS BELOW 12,000 FEET WITH NO
       SIGNIFICANT WEATHER AND/OR OBSTRUCTIONS TO VISIBILITY.

  * THESE STATIONS DO NOT REPORT WEATHER SUCH AS RAIN...SNOW OR FOG.

NEZ001>004-019>022-054>056-312100-
NEBRASKA PANHANDLE

CITY           SKY/WX    TMP DP  RH WIND       PRES   REMARKS
SCOTTSBLUFF    MOSUNNY   69  39  33 W9G22     30.06F
ALLIANCE       SUNNY     69  40  34 W15G24    30.03F
CHADRON        MOSUNNY   73  33  23 W21G30    30.00F
KIMBALL        PTSUNNY   60  44  55 SW6       30.10F
SIDNEY         PTSUNNY   63  40  42 NW7       30.10F
$$

NEZ057>060-069>072-079>082-312100-
SOUTHWEST NEBRASKA

CITY           SKY/WX    TMP DP  RH WIND       PRES   REMARKS
NORTH PLATTE   PTSUNNY   68  48  48 NW12      30.04F
IMPERIAL       MOSUNNY   66  45  46 N8        30.06F
LEXINGTON      SUNNY     69  51  53 N6        30.01F
MCCOOK         SUNNY     71  45  39 N9        30.02F
OGALLALA       CLOUDY    65  43  45 NW8       30.06F
$$

NEZ005>010-023>029-035>040-094-312100-
NORTH CENTRAL NEBRASKA

CITY           SKY/WX    TMP DP  RH WIND       PRES   REMARKS
VALENTINE      SUNNY     72  36  26 W31G38    29.94F
AINSWORTH      SUNNY     71  40  33 W16G29    29.96F
BROKEN BOW     CLOUDY    68  45  43 W10       30.00F
O`NEILL        SUNNY     71  45  39 SW12      29.96F
ORD            CLOUDY    72  43  35 NW10      29.97F
THEDFORD       MOSUNNY   70  48  45 SW14G22   30.00F
$$

NEZ041-046>049-061>064-073>077-083>087-312100-
SOUTH CENTRAL NEBRASKA

CITY           SKY/WX    TMP DP  RH WIND       PRES   REMARKS
GRAND ISLAND   CLOUDY    72  45  37 N9        29.98F
AURORA         SUNNY     71  49  45 N9G16     29.98F
HASTINGS       SUNNY     72  50  45 N9        29.98F
HEBRON         CLOUDY    71  57  60 N7        29.97F
HOLDREGE       SUNNY     70  43  37 NE7       30.00F
KEARNEY *      MOSUNNY   70  43  37 N10G16    30.00F
YORK           SUNNY     72  54  53 N12       29.98F
$$

NEZ011>018-030>034-042>045-312100-
NORTHEAST NEBRASKA

CITY           SKY/WX    TMP DP  RH WIND       PRES   REMARKS
NORFOLK        MOSUNNY   71  46  40 W8        29.95F
ALBION         CLOUDY    71  45  39 NW7       29.97F
BLAIR          CLOUDY    73  59  62 NW8       29.94S
FREMONT        MOSUNNY   73  51  46 NW9G16    29.96S
TEKAMAH        MOSUNNY   76  52  43 N9G20     29.93F
WAYNE          SUNNY     73  51  45 NW7       29.94F
$$

NEZ050>053-065>068-078-088>093-312100-
SOUTHEAST NEBRASKA

CITY           SKY/WX    TMP DP  RH WIND       PRES   REMARKS
LINCOLN        CLOUDY    75  56  51 N10       29.95F
OMAHA EPPLEY   CLOUDY    73  59  61 NW14      29.93R
BEATRICE       CLOUDY    72  58  62 N8        29.95S
FALLS CITY     LGT RAIN  78  63  59 NW8       29.89
NEBRASKA CITY  MOSUNNY   73  61  64 NW8       29.93F
PLATTSMOUTH    CLOUDY    74  61  64 NW10G16   29.93S
$$

NEZ044-045-051>053-067-312100-
OMAHA AREA

CITY           SKY/WX    TMP DP  RH WIND       PRES   REMARKS
OMAHA EPPLEY   CLOUDY    73  59  61 NW14      29.93R
BLAIR          CLOUDY    73  59  62 NW8       29.94S
FREMONT        MOSUNNY   73  51  46 NW9G16    29.96S
MILLARD        PTSUNNY   72  59  63 W12       29.93F
OFFUTT AFB     PTSUNNY   73  60  65 NW10      29.92S
PLATTSMOUTH    CLOUDY    74  61  64 NW10G16   29.93S
WAHOO          FAIR      75  50  41 NW12G18   29.95S
$$




USA.gov is the U.S. government's official web portal to all federal, state and local government web resources and services.